Location: Oshawa
(43.9000°N, 78.8670°W)
Time: 17:16:49
(UTC-04:00)

ITAMSAT 1 - Visible Passes

Search period start: 01 May 2016 00:00
Search period end: 11 May 2016 00:00
Orbit: 783 x 798 km, 98.7° (Epoch: 01 May)

Date Brightness Start Highest point End Pass type
(mag) Time Alt. Az. Time Alt. Az. Time Alt. Az.
01 May 10.1 02:48:42 10° ENE 02:51:09 13° E 02:53:37 10° ESE visible
01 May 7.6 04:26:02 10° NNE 04:31:14 79° WNW 04:35:02 19° SSW visible
02 May 8.1 03:56:47 10° NNE 04:01:54 57° E 04:05:27 20° S visible
03 May 9.1 03:27:51 10° NE 03:32:26 31° E 03:35:51 16° SSE visible
03 May 8.4 05:07:14 10° N 05:11:55 35° WNW 05:16:35 10° SW visible
04 May 9.9 02:59:30 10° NE 03:02:51 17° E 03:06:12 10° SE visible
04 May 7.7 04:37:37 10° N 04:42:45 63° WNW 04:47:00 15° SSW visible
05 May 7.8 04:08:16 10° NNE 04:13:28 73° ESE 04:17:24 18° S visible
06 May 8.8 03:39:12 10° NNE 03:44:03 39° E 03:47:49 16° SSE visible
06 May 8.7 05:18:58 10° N 05:23:22 29° WNW 05:27:46 10° WSW visible
07 May 9.6 03:10:34 10° NE 03:14:32 22° E 03:18:13 11° SE visible
07 May 8.0 04:49:16 10° N 04:54:16 50° WNW 04:58:57 12° SW visible
08 May 10.2 02:43:12 10° ENE 02:44:51 11° E 02:46:30 10° ESE visible
08 May 7.6 04:19:48 10° NNE 04:25:01 90° NW 04:29:21 15° SSW visible
09 May 8.4 03:50:37 10° NNE 03:55:40 50° E 03:59:45 15° S visible
10 May 9.3 03:21:46 10° NE 03:26:11 27° E 03:30:08 12° SSE visible
10 May 8.3 05:00:55 10° N 05:05:45 40° WNW 05:10:34 10° SW visible
